Beckley, WV

5:01 AM EST on November 24, 2017 (GMT -0500)
Raleigh County Memorial

Weather History for KBKW - October, 2011

Change the Weather History Date:

Saturday, October 22, 2011

  Actual Average Record
Temperature  
Mean Temperature 45 °F 52 °F  
Max Temperature 58 °F 62 °F 80 °F (1909)
Min Temperature 32 °F 41 °F 10 °F (1913)
Degree Days  
Heating Degree Days 20 14  
Month to date heating degree days 241 239  
Since 1 July heating degree days 318 373  
Cooling Degree Days 0 0  
Month to date cooling degree days 0 2  
Year to date cooling degree days 865 552  
Moisture  
Dew Point 34 °F    
Average Humidity 70    
Maximum Humidity 100    
Minimum Humidity 40    
Precipitation  
Precipitation 0.00 in 0.08 in 1.49 in (1990)
Month to date precipitation 1.89 1.77  
Year to date precipitation 33.51 34.44  
Snow  
Snow 0.00 in 0.00 in 0.50 in (1913)
Month to date snowfall 0.0 0.1  
Since 1 September snowfall 0.0 0.1  
Snow Depth 0.00 in    
Sea Level Pressure  
Sea Level Pressure 30.16 in    
Wind  
Wind Speed 3 mph (WSW)    
Max Wind Speed 10 mph    
Max Gust Speed 15 mph    
Visibility 10 miles    
Events      
T = Trace of Precipitation, MM = Missing Value Source: NWS Daily Summary

Daily Weather History Graph

Daily Weather History Graph

Search for Another Location

Airport or City:

Trip Planner

Search our weather history database for the weather conditions in past years. The results will help you decide how hot, cold, wet, or windy it might be!

Date:

Astronomy

Oct. 22, 2011 Rise Set
Actual Time 7:39 AM EDT 6:37 PM EDT
Civil Twilight 7:12 AM EDT 7:04 PM EDT
Nautical Twilight 6:42 AM EDT 7:35 PM EDT
Astronomical Twilight 6:11 AM EDT 8:05 PM EDT
Moon 2:40 AM EDT (10/22) 3:50 PM EDT (10/22)
Length of Visible Light 11h 51m
Length of Day
10h 58m
Waning Crescent, 24% of the Moon is Illuminated
Oct 22
Waning Crescent
Oct 26
New
Nov 2
First Quarter
Nov 10
Full
Nov 18
Last Quarter

Hourly Weather History & Observations

Time (EDT) Temp. Windchill Dew Point Humidity Pressure Visibility Wind Dir Wind Speed Gust Speed Precip Events Conditions
12:51 AM 35.1 °F 32.2 °F 33.1 °F 92% 30.17 in 10.0 mi South 3.5 mph - N/A   Clear
1:51 AM 36.0 °F - 33.1 °F 89% 30.16 in 10.0 mi Calm Calm - N/A   Clear
2:51 AM 35.1 °F - 33.1 °F 92% 30.17 in 10.0 mi Calm Calm - N/A   Clear
3:51 AM 34.0 °F - 33.1 °F 96% 30.15 in 8.0 mi Calm Calm - N/A   Clear
4:51 AM 34.0 °F 31.0 °F 32.0 °F 92% 30.15 in 8.0 mi SSE 3.5 mph - N/A   Clear
5:51 AM 33.1 °F - 30.9 °F 92% 30.16 in 8.0 mi Calm Calm - N/A   Clear
6:51 AM 34.0 °F 31.0 °F 30.9 °F 89% 30.19 in 10.0 mi South 3.5 mph - N/A   Clear
7:51 AM 34.0 °F - 30.9 °F 89% 30.20 in 8.0 mi Calm Calm - N/A   Clear
8:51 AM 37.9 °F 35.5 °F 35.1 °F 89% 30.21 in 10.0 mi SSW 3.5 mph - N/A   Clear
9:51 AM 44.1 °F 41.5 °F 37.0 °F 76% 30.20 in 10.0 mi SW 4.6 mph - N/A   Clear
10:51 AM 48.0 °F - 37.9 °F 68% 30.20 in 10.0 mi WSW 3.5 mph - N/A   Clear
11:51 AM 51.1 °F - 36.0 °F 56% 30.19 in 10.0 mi West 6.9 mph - N/A   Partly Cloudy
12:51 PM 54.0 °F - 36.0 °F 51% 30.15 in 10.0 mi NW 5.8 mph - N/A   Clear
1:51 PM 55.9 °F - 35.1 °F 45% 30.13 in 10.0 mi West 9.2 mph - N/A   Clear
2:51 PM 55.9 °F - 35.1 °F 45% 30.12 in 10.0 mi SW 6.9 mph - N/A   Clear
3:51 PM 57.0 °F - 34.0 °F 42% 30.11 in 10.0 mi West 3.5 mph - N/A   Clear
4:51 PM 57.9 °F - 34.0 °F 41% 30.11 in 10.0 mi West 6.9 mph - N/A   Clear
5:51 PM 55.9 °F - 34.0 °F 44% 30.11 in 10.0 mi NNW 4.6 mph - N/A   Clear
6:51 PM 51.1 °F - 34.0 °F 52% 30.14 in 10.0 mi NW 4.6 mph - N/A   Clear
7:51 PM 45.0 °F - 34.0 °F 65% 30.16 in 10.0 mi Calm Calm - N/A   Clear
8:51 PM 44.1 °F - 35.1 °F 71% 30.17 in 10.0 mi Calm Calm - N/A   Clear
9:51 PM 42.1 °F - 35.1 °F 76% 30.16 in 10.0 mi Calm Calm - N/A   Clear
10:51 PM 41.0 °F - 34.0 °F 76% 30.14 in 10.0 mi Calm Calm - N/A   Clear
11:51 PM 39.9 °F - 34.0 °F 79% 30.14 in 10.0 mi Calm Calm - N/A   Clear